sat.trackr.live / text

‹ back to catalog

STARLINK-32615

NORAD 62034 · 2024-216C

PAYLOAD ACTIVE UNKNOWN

§ Identity

Operator
Country
US
Launch date
2024-11-21
Launch site
AFETR
Launch vehicle
Mass (kg)
RCS (m²)

Purposes: comms

External: N2YO · Heavens-Above · Gunter

§ Orbital elements

Epoch: 2026-09-21T21:50:33.719136Z

Period
94.27 min
Inclination
42.9968°
Eccentricity
0.0000767
Mean motion
15.27597380 rev/d
Perigee alt
482.5 km
Apogee alt
483.5 km
Semi-major
6,861.1 km
B*
2.6610e-4
RAAN
228.2959°
Arg perigee
326.0691°
Mean anomaly
34.0111°
Rev number
10,272

§ Raw data

STARLINK-326151 62034U 24216C   26264.91011249  .00007071  00000+0  26610-3 0  99992 62034  42.9968 228.2959 0000767 326.0691  34.0111 15.27597380102728

JSON: /api/v1/satellites/62034 · /tle

For live sub-satellite position, see the globe view (requires WebGL).

§ Visibility from observer

Set your observer location to see the next 7 days of passes ≥ 10°. The values pass through the URL so the page stays shareable.

No JS? Fill the form by hand. The geolocation button needs JavaScript.